Terug naar catalogus

BREEZE-M DEB

ActiefHEO
NORAD 38593·DEBRIS·🇷🇺 Russia

Gelanceerd Mar 14, 2008 vanaf Baikonur Cosmodrome

Loading…

Volgende Passages (komende 24 uur)

TLE

VersSource: Space-Track

Epoch: Sep 14, 2026, 04:08 UTC

1 38593U 08011AQ  26257.17260599  .00000341  00000-0  23316-2 0  9994
2 38593  49.3131 253.7573 6569796 309.8147   8.6097  3.03522000172132

Volg BREEZE-M DEB in realtime met AllMySat

Download on the App Store